{"data":{"norad_id":54750,"intl_designator":"2022-171E","name":"YAOGAN-36 04C","alt_names":[],"object_type":"PAYLOAD","status":"ACTIVE","operator":null,"country":"PRC","launch_date":"2022-12-14","launch_site_code":"XICLF","launch_vehicle":null,"mission":null,"orbit_class":"UNKNOWN","rcs_meters":null,"size_class":null,"mass_kg":null,"dimensions":null,"purposes":[],"wikipedia_slug":null,"has_3d_model":false,"image_url":null,"decayed_at":null,"tle_current":{"epoch":"2026-09-21T11:47:34.838016Z","epoch_age_seconds":76669,"freshness":"FRESH","line1":"1 54750U 22171E   26264.49137544  .00009793  00000+0  28276-3 0  9996","line2":"2 54750  34.9808 287.7441 0005920 279.6038  80.4011 15.34859654210286","mean_motion":15.34859654,"eccentricity":0.000592,"inclination_deg":34.9808,"raan_deg":287.7441,"arg_perigee_deg":279.6038,"mean_anomaly_deg":80.4011,"bstar":0.00028276,"rev_number":21028,"period_min":93.819652907496,"perigee_km":457.28842377318,"apogee_km":465.38636145403,"semimajor_km":6839.4743926136,"source":"CELESTRAK","updated_at":"2026-09-22T09:00:25.189425Z"}}}